Time,TemperatureF,DewpointF,PressureIn,WindDirection,WindDirectionDegrees,WindSpeedMPH,WindSpeedGustMPH,Humidity,HourlyPrecipIn,Conditions,Clouds,dailyrainin,SoftwareType,DateUTC
2014-09-18 00:00:00,75.0,72.5,29.90,WNW,288,1.0,1.0,92,0.00,CLR,,0.00,WeatherDisplay:10.37,2014-09-18 04:00:00,
2014-09-18 00:05:00,75.0,72.5,29.90,WNW,288,1.2,0.0,92,0.00,CLR,,0.00,WeatherDisplay:10.37,2014-09-18 04:05:00,
2014-09-18 00:10:00,75.0,72.5,29.90,WNW,288,3.5,3.5,92,0.00,CLR,,0.00,WeatherDisplay:10.37,2014-09-18 04:10:00,
2014-09-18 00:15:00,75.0,72.5,29.90,WNW,288,0.0,0.0,92,0.00,CLR,,0.00,WeatherDisplay:10.37,2014-09-18 04:15:00,
2014-09-18 00:20:00,75.0,72.5,29.90,WNW,288,2.0,2.0,92,0.00,CLR,,0.00,WeatherDisplay:10.37,2014-09-18 04:20:00,
2014-09-18 00:25:00,75.0,72.5,29.89,WNW,288,2.3,2.3,92,0.00,CLR,,0.00,WeatherDisplay:10.37,2014-09-18 04:25:00,
2014-09-18 00:30:00,75.0,72.5,29.90,WNW,288,1.2,1.2,92,0.00,CLR,,0.00,WeatherDisplay:10.37,2014-09-18 04:30:00,
2014-09-18 00:35:00,74.9,72.4,29.90,WNW,288,2.3,2.3,92,0.00,CLR,,0.00,WeatherDisplay:10.37,2014-09-18 04:35:00,
2014-09-18 00:40:00,74.9,72.4,29.89,WNW,288,3.5,3.5,92,0.00,CLR,,0.00,WeatherDisplay:10.37,2014-09-18 04:40:00,
2014-09-18 00:45:00,74.8,72.3,29.89,WNW,288,1.2,1.2,92,0.00,CLR,,0.00,WeatherDisplay:10.37,2014-09-18 04:45:00,
2014-09-18 00:50:00,74.8,72.3,29.88,WNW,288,1.2,1.2,92,0.00,CLR,,0.00,WeatherDisplay:10.37,2014-09-18 04:50:00,
2014-09-18 00:55:00,74.8,72.3,29.88,WNW,288,2.0,2.0,92,0.00,CLR,,0.00,WeatherDisplay:10.37,2014-09-18 04:55:00,
2014-09-18 00:58:00,74.8,72.3,29.88,WNW,288,1.2,1.2,92,0.00,CLR,,0.00,WeatherDisplay:10.37,2014-09-18 04:58:00,
2014-09-18 01:03:00,74.8,72.3,29.88,WNW,288,1.2,1.2,92,0.00,CLR,,0.00,WeatherDisplay:10.37,2014-09-18 05:03:00,
2014-09-18 01:08:00,74.8,72.6,29.88,WNW,288,3.5,3.5,93,0.00,CLR,,0.00,WeatherDisplay:10.37,2014-09-18 05:08:00,
2014-09-18 01:13:00,74.8,72.6,29.88,WNW,286,2.3,0.0,93,0.00,CLR,,0.00,WeatherDisplay:10.37,2014-09-18 05:13:00,
2014-09-18 01:18:00,74.8,72.6,29.87,WNW,286,0.0,0.0,93,0.00,CLR,,0.00,WeatherDisplay:10.37,2014-09-18 05:18:00,
2014-09-18 01:23:00,74.7,72.5,29.87,WNW,286,0.0,0.0,93,0.00,CLR,,0.00,WeatherDisplay:10.37,2014-09-18 05:23:00,
2014-09-18 01:28:00,74.7,72.5,29.87,West,277,3.5,3.5,93,0.00,CLR,,0.00,WeatherDisplay:10.37,2014-09-18 05:28:00,
2014-09-18 01:33:00,74.7,72.5,29.87,SW,223,4.6,4.6,93,0.00,CLR,,0.00,WeatherDisplay:10.37,2014-09-18 05:33:00,
2014-09-18 01:38:00,74.8,72.6,29.87,SW,223,3.5,3.5,93,0.00,CLR,,0.00,WeatherDisplay:10.37,2014-09-18 05:38:00,
2014-09-18 01:43:00,74.8,72.6,29.86,SW,220,3.5,3.5,93,0.00,CLR,,0.00,WeatherDisplay:10.37,2014-09-18 05:43:00,
2014-09-18 01:48:00,74.8,72.6,29.86,SW,223,5.8,5.8,93,0.00,CLR,,0.00,WeatherDisplay:10.37,2014-09-18 05:48:00,
2014-09-18 01:53:00,74.7,72.5,29.86,SW,232,6.0,6.0,93,0.00,CLR,,0.00,WeatherDisplay:10.37,2014-09-18 05:53:00,
2014-09-18 01:58:00,74.7,72.5,29.86,SW,233,5.8,5.8,93,0.00,CLR,,0.00,WeatherDisplay:10.37,2014-09-18 05:58:00,
2014-09-18 02:03:00,74.8,72.3,29.86,WSW,250,3.5,3.5,92,0.00,CLR,,0.00,WeatherDisplay:10.37,2014-09-18 06:03:00,
2014-09-18 02:08:00,74.7,72.2,29.85,WSW,252,4.6,4.6,92,0.00,CLR,,0.00,WeatherDisplay:10.37,2014-09-18 06:08:00,
2014-09-18 02:13:00,74.7,72.2,29.85,SW,230,3.5,3.5,92,0.00,CLR,,0.00,WeatherDisplay:10.37,2014-09-18 06:13:00,
2014-09-18 02:18:00,74.7,71.9,29.85,WSW,248,4.6,4.6,91,0.00,CLR,,0.00,WeatherDisplay:10.37,2014-09-18 06:18:00,
2014-09-18 02:23:00,74.7,71.9,29.85,WSW,250,4.6,4.6,91,0.00,CLR,,0.00,WeatherDisplay:10.37,2014-09-18 06:23:00,
2014-09-18 02:28:00,74.8,72.0,29.85,WSW,248,3.5,3.5,91,0.00,CLR,,0.00,WeatherDisplay:10.37,2014-09-18 06:28:00,
2014-09-18 02:33:00,74.7,71.9,29.85,WSW,249,4.0,4.0,91,0.00,CLR,,0.00,WeatherDisplay:10.37,2014-09-18 06:33:00,
2014-09-18 02:38:00,74.7,71.9,29.85,WSW,250,4.6,4.6,91,0.00,CLR,,0.00,WeatherDisplay:10.37,2014-09-18 06:38:00,
2014-09-18 02:43:00,74.7,71.9,29.85,WSW,252,5.8,5.8,91,0.00,CLR,,0.00,WeatherDisplay:10.37,2014-09-18 06:43:00,
2014-09-18 02:48:00,74.7,71.9,29.84,WSW,250,10.4,10.4,91,0.00,CLR,,0.00,WeatherDisplay:10.37,2014-09-18 06:48:00,
2014-09-18 02:53:00,74.7,71.9,29.84,West,265,4.6,4.6,91,0.00,CLR,,0.00,WeatherDisplay:10.37,2014-09-18 06:53:00,
2014-09-18 02:58:00,74.6,71.8,29.84,SW,232,4.6,4.6,91,0.00,CLR,,0.00,WeatherDisplay:10.37,2014-09-18 06:58:00,
2014-09-18 03:03:00,74.5,71.7,29.84,West,263,3.5,3.5,91,0.00,CLR,,0.00,WeatherDisplay:10.37,2014-09-18 07:03:00,
2014-09-18 03:09:00,74.5,72.0,29.84,SW,233,4.6,4.9,92,0.00,CLR,,0.00,WeatherDisplay:10.37,2014-09-18 07:09:00,
2014-09-18 03:14:00,74.4,71.9,29.84,WSW,248,3.5,3.5,92,0.00,CLR,,0.00,WeatherDisplay:10.37,2014-09-18 07:14:00,
2014-09-18 03:19:00,74.4,71.9,29.83,SW,234,5.8,5.8,92,0.00,CLR,,0.00,WeatherDisplay:10.37,2014-09-18 07:19:00,
2014-09-18 03:24:00,74.3,71.8,29.83,SW,232,4.6,4.6,92,0.00,CLR,,0.00,WeatherDisplay:10.37,2014-09-18 07:24:00,
2014-09-18 03:29:00,74.3,71.8,29.83,SW,232,4.6,4.6,92,0.00,CLR,,0.00,WeatherDisplay:10.37,2014-09-18 07:29:00,
2014-09-18 03:34:00,74.3,71.8,29.83,SW,234,3.5,3.5,92,0.00,CLR,,0.00,WeatherDisplay:10.37,2014-09-18 07:34:00,
2014-09-18 03:39:00,74.2,71.7,29.83,SW,234,3.5,3.5,92,0.00,CLR,,0.00,WeatherDisplay:10.37,2014-09-18 07:39:00,
2014-09-18 03:44:00,74.2,71.7,29.83,SW,229,4.0,4.0,92,0.00,CLR,,0.00,WeatherDisplay:10.37,2014-09-18 07:44:00,
2014-09-18 03:48:00,74.1,71.6,29.83,WSW,243,3.5,3.5,92,0.00,CLR,,0.00,WeatherDisplay:10.37,2014-09-18 07:48:00,
2014-09-18 03:53:00,74.1,71.6,29.83,WSW,237,3.5,3.5,92,0.00,CLR,,0.00,WeatherDisplay:10.37,2014-09-18 07:53:00,
2014-09-18 03:58:00,74.0,71.5,29.83,WSW,255,4.6,4.6,92,0.00,CLR,,0.00,WeatherDisplay:10.37,2014-09-18 07:58:00,
2014-09-18 04:03:00,74.0,71.5,29.83,WSW,254,3.5,3.5,92,0.00,CLR,,0.00,WeatherDisplay:10.37,2014-09-18 08:03:00,
2014-09-18 04:08:00,74.0,71.8,29.83,WSW,255,6.0,6.0,93,0.00,CLR,,0.00,WeatherDisplay:10.37,2014-09-18 08:08:00,
2014-09-18 04:13:00,74.0,71.8,29.83,WSW,246,2.3,2.3,93,0.00,CLR,,0.00,WeatherDisplay:10.37,2014-09-18 08:13:00,
2014-09-18 04:18:00,74.0,71.8,29.83,WSW,250,4.0,4.0,93,0.00,CLR,,0.00,WeatherDisplay:10.37,2014-09-18 08:18:00,
2014-09-18 04:23:00,73.9,71.7,29.84,WSW,250,2.3,2.3,93,0.00,CLR,,0.00,WeatherDisplay:10.37,2014-09-18 08:23:00,
2014-09-18 04:28:00,73.9,71.7,29.84,WSW,250,2.3,2.3,93,0.00,CLR,,0.00,WeatherDisplay:10.37,2014-09-18 08:28:00,
2014-09-18 04:33:00,73.9,71.7,29.84,WSW,250,3.5,3.5,93,0.00,CLR,,0.00,WeatherDisplay:10.37,2014-09-18 08:33:00,
2014-09-18 04:38:00,73.8,71.6,29.84,WSW,250,2.3,2.3,93,0.00,CLR,,0.00,WeatherDisplay:10.37,2014-09-18 08:38:00,
2014-09-18 04:43:00,73.7,71.5,29.84,WSW,250,3.5,3.5,93,0.00,CLR,,0.00,WeatherDisplay:10.37,2014-09-18 08:43:00,
2014-09-18 04:48:00,73.7,71.9,29.84,WSW,250,0.0,0.0,94,0.00,CLR,,0.00,WeatherDisplay:10.37,2014-09-18 08:48:00,
2014-09-18 04:53:00,73.6,71.8,29.84,WSW,250,0.0,0.0,94,0.00,CLR,,0.00,WeatherDisplay:10.37,2014-09-18 08:53:00,
2014-09-18 04:58:00,73.6,71.8,29.84,WSW,250,0.0,0.0,94,0.00,CLR,,0.00,WeatherDisplay:10.37,2014-09-18 08:58:00,
2014-09-18 05:03:00,73.5,71.7,29.84,WSW,250,0.0,0.0,94,0.00,CLR,,0.00,WeatherDisplay:10.37,2014-09-18 09:03:00,
2014-09-18 05:08:00,73.5,71.7,29.84,WSW,250,2.0,2.0,94,0.00,CLR,,0.00,WeatherDisplay:10.37,2014-09-18 09:08:00,
2014-09-18 05:13:00,73.5,71.7,29.84,WSW,250,2.3,2.3,94,0.00,CLR,,0.00,WeatherDisplay:10.37,2014-09-18 09:13:00,
2014-09-18 05:18:00,73.4,71.6,29.84,WSW,250,1.2,1.2,94,0.00,CLR,,0.00,WeatherDisplay:10.37,2014-09-18 09:18:00,
2014-09-18 05:23:00,73.4,71.6,29.84,WSW,250,2.3,0.0,94,0.00,CLR,,0.00,WeatherDisplay:10.37,2014-09-18 09:23:00,
2014-09-18 05:28:00,73.4,71.9,29.84,WSW,250,1.2,1.2,95,0.00,CLR,,0.00,WeatherDisplay:10.37,2014-09-18 09:28:00,
2014-09-18 05:33:00,73.4,71.9,29.84,WSW,250,3.5,3.5,95,0.00,CLR,,0.00,WeatherDisplay:10.37,2014-09-18 09:33:00,
2014-09-18 05:38:00,73.4,71.9,29.85,WSW,250,0.0,0.6,95,0.00,CLR,,0.00,WeatherDisplay:10.37,2014-09-18 09:38:00,
2014-09-18 05:43:00,73.4,71.9,29.85,WSW,250,0.0,0.0,95,0.00,CLR,,0.00,WeatherDisplay:10.37,2014-09-18 09:43:00,